| time (UTC) | temp F | wind direction | speed MPH | gust MPH | rain 1hr in | rain 24hr in | rain mn in | humidity % | barometer mb |
| 20260507083549 | 50 | 9 | 4.0 | 8.0 | 0.07 | 0.21 | 0.13 | 93 | 1006.6 |
| 20260507083058 | 50 | 350 | 2.0 | 5.0 | 0.06 | 0.20 | 0.12 | 91 | 1006.9 |
| 20260507082548 | 50 | 344 | 2.0 | 8.0 | 0.07 | 0.20 | 0.12 | 91 | 1006.9 |
| 20260507082046 | 50 | 351 | 3.0 | 8.0 | 0.07 | 0.19 | 0.11 | 91 | 1006.7 |
| 20260507081602 | 50 | 333 | 4.0 | 8.0 | 0.07 | 0.18 | 0.10 | 90 | 1006.8 |
| 20260507081050 | 50 | 342 | 4.0 | 8.0 | 0.09 | 0.18 | 0.10 | 90 | 1006.9 |
| 20260507080547 | 50 | 326 | 3.0 | 6.0 | 0.10 | 0.18 | 0.10 | 87 | 1007.0 |
| 20260507080121 | 51 | 335 | 2.0 | 7.0 | 0.09 | 0.17 | 0.09 | 90 | 1006.9 |
| 20260507075549 | 51 | 342 | 4.0 | 7.0 | 0.08 | 0.16 | 0.08 | 90 | 1006.7 |
| 20260507075048 | 51 | 352 | 1.0 | 4.0 | 0.08 | 0.16 | 0.08 | 90 | 1006.8 |
| 20260507074557 | 51 | 24 | 0.0 | 4.0 | 0.07 | 0.15 | 0.07 | 89 | 1007.1 |
| 20260507074047 | 51 | 0 | 0.0 | 5.0 | 0.07 | 0.15 | 0.07 | 90 | 1007.4 |
| 20260507073551 | 51 | 0 | 0.0 | 5.0 | 0.06 | 0.14 | 0.06 | 89 | 1007.2 |
| 20260507073054 | 51 | 341 | 2.0 | 6.0 | 0.06 | 0.14 | 0.06 | 87 | 1007.1 |
| 20260507072549 | 51 | 26 | 2.0 | 11.0 | 0.05 | 0.13 | 0.05 | 88 | 1006.6 |
| 20260507072048 | 52 | 315 | 3.0 | 12.0 | 0.04 | 0.12 | 0.04 | 87 | 1007.2 |
| 20260507071555 | 52 | 351 | 8.0 | 12.0 | 0.03 | 0.11 | 0.03 | 86 | 1007.0 |
| 20260507071048 | 52 | 5 | 5.0 | 10.0 | 0.01 | 0.09 | 0.01 | 85 | 1006.1 |
| 20260507070548 | 52 | 340 | 6.0 | 10.0 | 0.00 | 0.08 | 0.00 | 86 | 1006.2 |
| 20260507070104 | 52 | 34 | 4.0 | 11.0 | 0.00 | 0.08 | 0.00 | 84 | 1005.8 |
| 20260507065552 | 53 | 20 | 5.0 | 11.0 | 0.00 | 0.08 | 0.00 | 84 | 1005.8 |
| 20260507065047 | 53 | 22 | 5.0 | 12.0 | 0.00 | 0.08 | 0.00 | 85 | 1005.5 |
| 20260507064626 | 53 | 15 | 6.0 | 12.0 | 0.00 | 0.08 | 0.00 | 86 | 1005.7 |
| 20260507064052 | 53 | 38 | 6.0 | 10.0 | 0.00 | 0.08 | 0.00 | 87 | 1005.8 |
| 20260507063550 | 54 | 31 | 4.0 | 9.0 | 0.00 | 0.08 | 0.00 | 91 | 1005.8 |
| 20260507063112 | 54 | 334 | 1.0 | 9.0 | 0.00 | 0.08 | 0.00 | 91 | 1006.0 |
| 20260507062548 | 54 | 342 | 4.0 | 9.0 | 0.00 | 0.08 | 0.00 | 91 | 1006.2 |
| 20260507062048 | 54 | 352 | 3.0 | 6.0 | 0.00 | 0.08 | 0.00 | 88 | 1006.1 |
| 20260507061552 | 54 | 344 | 3.0 | 5.0 | 0.00 | 0.08 | 0.00 | 90 | 1006.0 |
| 20260507061051 | 54 | 327 | 1.0 | 8.0 | 0.00 | 0.08 | 0.00 | 90 | 1006.0 |
| 20260507060549 | 54 | 339 | 1.0 | 11.0 | 0.00 | 0.08 | 0.00 | 89 | 1006.0 |
| 20260507060111 | 54 | 333 | 3.0 | 11.0 | 0.00 | 0.08 | 0.00 | 89 | 1006.1 |
| 20260507055548 | 54 | 333 | 6.0 | 11.0 | 0.00 | 0.08 | 0.00 | 89 | 1006.0 |
| 20260507055048 | 55 | 5 | 4.0 | 11.0 | 0.00 | 0.08 | 0.00 | 89 | 1006.1 |
| 20260507054557 | 55 | 352 | 7.0 | 11.0 | 0.00 | 0.08 | 0.00 | 87 | 1006.2 |
| 20260507054048 | 55 | 327 | 4.0 | 8.0 | 0.00 | 0.08 | 0.00 | 90 | 1006.4 |
| 20260507053548 | 55 | 316 | 2.0 | 6.0 | 0.00 | 0.08 | 0.00 | 90 | 1006.4 |
| 20260507053103 | 55 | 296 | 2.0 | 7.0 | 0.00 | 0.08 | 0.00 | 90 | 1006.2 |
| 20260507052550 | 56 | 273 | 2.0 | 10.0 | 0.00 | 0.08 | 0.00 | 89 | 1006.3 |
| 20260507052048 | 56 | 280 | 3.0 | 10.0 | 0.00 | 0.08 | 0.00 | 90 | 1006.4 |
| 20260507051602 | 56 | 339 | 3.0 | 10.0 | 0.00 | 0.08 | 0.00 | 87 | 1006.5 |
| 20260507051047 | 56 | 286 | 0.0 | 4.0 | 0.00 | 0.08 | 0.00 | 91 | 1006.6 |
| 20260507050547 | 56 | 302 | 1.0 | 4.0 | 0.00 | 0.08 | 0.00 | 91 | 1006.4 |
| 20260507050052 | 56 | 0 | 1.0 | 3.0 | 0.00 | 0.08 | 0.00 | 91 | 1006.4 |
| 20260507045550 | 56 | 0 | 1.0 | 6.0 | 0.00 | 0.08 | 0.00 | 91 | 1006.3 |
| 20260507045048 | 56 | 291 | 1.0 | 6.0 | 0.00 | 0.08 | 0.00 | 91 | 1006.3 |
| 20260507044557 | 56 | 324 | 1.0 | 4.0 | 0.00 | 0.08 | 0.00 | 90 | 1006.4 |
| 20260507044051 | 56 | 0 | 0.0 | 4.0 | 0.00 | 0.08 | 0.00 | 91 | 1006.4 |
| 20260507043548 | 57 | 0 | 0.0 | 6.0 | 0.00 | 0.08 | 0.00 | 90 | 1006.4 |
| 20260507043052 | 57 | 267 | 1.0 | 6.0 | 0.00 | 0.08 | 0.00 | 90 | 1006.3 |
| 20260507042547 | 57 | 325 | 2.0 | 7.0 | 0.00 | 0.08 | 0.00 | 90 | 1006.2 |
| 20260507042048 | 57 | 263 | 3.0 | 7.0 | 0.00 | 0.08 | 0.00 | 90 | 1006.4 |
| 20260507041553 | 57 | 269 | 3.0 | 7.0 | 0.00 | 0.08 | 0.00 | 89 | 1006.3 |
| 20260507041048 | 57 | 309 | 2.0 | 9.0 | 0.00 | 0.08 | 0.00 | 89 | 1006.3 |
| 20260507040548 | 58 | 273 | 3.0 | 9.0 | 0.00 | 0.08 | 0.00 | 86 | 1006.1 |
| 20260507040052 | 58 | 277 | 4.0 | 10.0 | 0.00 | 0.08 | 0.00 | 90 | 1006.1 |
| 20260507035548 | 58 | 325 | 4.0 | 10.0 | 0.00 | 0.08 | 0.08 | 91 | 1006.2 |
| 20260507035047 | 58 | 306 | 5.0 | 10.0 | 0.00 | 0.08 | 0.08 | 93 | 1006.3 |
| 20260507034555 | 58 | 283 | 1.0 | 6.0 | 0.00 | 0.08 | 0.08 | 94 | 1006.2 |
| 20260507034047 | 58 | 277 | 2.0 | 6.0 | 0.00 | 0.08 | 0.08 | 94 | 1006.3 |
| 20260507033547 | 58 | 269 | 3.0 | 8.0 | 0.00 | 0.08 | 0.08 | 94 | 1006.2 |
| 20260507033050 | 58 | 338 | 3.0 | 9.0 | 0.00 | 0.08 | 0.08 | 94 | 1006.1 |
| 20260507032546 | 58 | 257 | 2.0 | 9.0 | 0.00 | 0.08 | 0.08 | 93 | 1006.2 |
| 20260507032048 | 58 | 242 | 2.0 | 8.0 | 0.00 | 0.08 | 0.08 | 93 | 1006.3 |
| 20260507031555 | 58 | 218 | 3.0 | 8.0 | 0.00 | 0.08 | 0.08 | 93 | 1006.3 |
| 20260507031050 | 58 | 234 | 4.0 | 8.0 | 0.00 | 0.08 | 0.08 | 93 | 1006.0 |
| 20260507030546 | 58 | 262 | 5.0 | 10.0 | 0.00 | 0.08 | 0.08 | 93 | 1005.9 |
| 20260507030053 | 58 | 219 | 5.0 | 10.0 | 0.00 | 0.08 | 0.08 | 93 | 1006.0 |
| 20260507025549 | 58 | 242 | 4.0 | 10.0 | 0.00 | 0.08 | 0.08 | 93 | 1006.0 |
| 20260507025049 | 58 | 226 | 4.0 | 10.0 | 0.00 | 0.08 | 0.08 | 93 | 1006.1 |
| 20260507024555 | 58 | 228 | 5.0 | 10.0 | 0.00 | 0.08 | 0.08 | 93 | 1006.1 |
| 20260507024048 | 58 | 236 | 4.0 | 10.0 | 0.00 | 0.08 | 0.08 | 93 | 1006.0 |
| 20260507023548 | 58 | 233 | 4.0 | 10.0 | 0.00 | 0.08 | 0.08 | 93 | 1006.1 |
| 20260507023055 | 58 | 240 | 4.0 | 9.0 | 0.00 | 0.08 | 0.08 | 93 | 1006.0 |
| 20260507022548 | 58 | 254 | 5.0 | 9.0 | 0.00 | 0.08 | 0.08 | 93 | 1006.0 |
| 20260507022047 | 58 | 215 | 3.0 | 8.0 | 0.00 | 0.08 | 0.08 | 93 | 1005.9 |
| 20260507021550 | 58 | 209 | 3.0 | 8.0 | 0.00 | 0.08 | 0.08 | 93 | 1005.9 |
| 20260507021047 | 58 | 212 | 2.0 | 11.0 | 0.00 | 0.08 | 0.08 | 93 | 1005.9 |
| 20260507020549 | 58 | 252 | 4.0 | 11.0 | 0.00 | 0.08 | 0.08 | 93 | 1006.0 |
| 20260507020108 | 58 | 234 | 4.0 | 9.0 | 0.01 | 0.08 | 0.08 | 93 | 1006.0 |
| 20260507015548 | 58 | 216 | 4.0 | 7.0 | 0.01 | 0.08 | 0.08 | 94 | 1006.1 |
| 20260507015047 | 58 | 259 | 2.0 | 7.0 | 0.01 | 0.08 | 0.08 | 94 | 1006.1 |
| 20260507014558 | 57 | 45 | 2.0 | 7.0 | 0.01 | 0.08 | 0.08 | 94 | 1005.9 |
| 20260507014049 | 57 | 272 | 2.0 | 6.0 | 0.01 | 0.08 | 0.08 | 93 | 1005.9 |
| 20260507013548 | 57 | 211 | 3.0 | 8.0 | 0.01 | 0.08 | 0.08 | 94 | 1006.1 |
| 20260507013053 | 57 | 219 | 2.0 | 8.0 | 0.01 | 0.08 | 0.08 | 94 | 1006.0 |
| 20260507012548 | 57 | 238 | 4.0 | 8.0 | 0.01 | 0.08 | 0.08 | 94 | 1005.9 |
| 20260507012049 | 57 | 249 | 3.0 | 8.0 | 0.01 | 0.08 | 0.08 | 94 | 1005.8 |
| 20260507011550 | 57 | 232 | 3.0 | 8.0 | 0.01 | 0.08 | 0.08 | 94 | 1006.1 |
| 20260507011048 | 57 | 243 | 4.0 | 8.0 | 0.01 | 0.08 | 0.08 | 94 | 1006.3 |
| 20260507010547 | 57 | 226 | 2.0 | 8.0 | 0.01 | 0.08 | 0.08 | 94 | 1006.1 |
| 20260507010100 | 57 | 209 | 2.0 | 8.0 | 0.00 | 0.07 | 0.07 | 94 | 1006.4 |
| 20260507005547 | 57 | 252 | 3.0 | 7.0 | 0.00 | 0.07 | 0.07 | 94 | 1006.3 |
| 20260507005048 | 57 | 198 | 3.0 | 8.0 | 0.00 | 0.07 | 0.07 | 94 | 1006.4 |
| 20260507004551 | 57 | 242 | 3.0 | 10.0 | 0.00 | 0.07 | 0.07 | 94 | 1006.4 |
| 20260507004048 | 57 | 260 | 4.0 | 10.0 | 0.00 | 0.07 | 0.07 | 94 | 1006.4 |
| 20260507003546 | 57 | 249 | 4.0 | 10.0 | 0.00 | 0.07 | 0.07 | 94 | 1006.4 |
| 20260507003050 | 57 | 250 | 4.0 | 10.0 | 0.00 | 0.07 | 0.07 | 94 | 1006.4 |
| 20260507002547 | 57 | 213 | 2.0 | 9.0 | 0.00 | 0.07 | 0.07 | 94 | 1006.4 |
| 20260507002047 | 57 | 208 | 4.0 | 9.0 | 0.00 | 0.07 | 0.07 | 94 | 1006.2 |
| 20260507001557 | 57 | 201 | 2.0 | 8.0 | 0.00 | 0.07 | 0.07 | 94 | 1006.2 |
| 20260507001049 | 57 | 230 | 3.0 | 8.0 | 0.00 | 0.07 | 0.07 | 93 | 1006.2 |
| 20260507000546 | 57 | 269 | 3.0 | 8.0 | 0.00 | 0.07 | 0.07 | 93 | 1006.1 |
| 20260507000054 | 57 | 259 | 3.0 | 8.0 | 0.00 | 0.07 | 0.07 | 93 | 1006.2 |
| 20260506235549 | 57 | 238 | 3.0 | 7.0 | 0.00 | 0.07 | 0.07 | 93 | 1006.1 |
| 20260506235047 | 57 | 213 | 3.0 | 8.0 | 0.00 | 0.07 | 0.07 | 93 | 1006.2 |
| 20260506234558 | 57 | 240 | 3.0 | 10.0 | 0.00 | 0.07 | 0.07 | 93 | 1006.0 |
| 20260506234045 | 57 | 252 | 3.0 | 10.0 | 0.00 | 0.07 | 0.07 | 92 | 1006.0 |
| 20260506233549 | 57 | 250 | 3.0 | 8.0 | 0.00 | 0.07 | 0.07 | 93 | 1006.0 |
| 20260506233055 | 57 | 238 | 3.0 | 8.0 | 0.00 | 0.07 | 0.07 | 93 | 1005.9 |
| 20260506232545 | 57 | 211 | 2.0 | 6.0 | 0.00 | 0.07 | 0.07 | 92 | 1005.9 |
| 20260506232045 | 57 | 233 | 2.0 | 8.0 | 0.00 | 0.07 | 0.07 | 92 | 1005.9 |
| 20260506231605 | 58 | 0 | 3.0 | 9.0 | 0.00 | 0.07 | 0.07 | 92 | 1005.8 |
| 20260506231047 | 58 | 0 | 4.0 | 9.0 | 0.00 | 0.07 | 0.07 | 92 | 1005.9 |
| 20260506230547 | 58 | 209 | 4.0 | 8.0 | 0.00 | 0.07 | 0.07 | 92 | 1005.9 |
| 20260506230114 | 58 | 0 | 3.0 | 8.0 | 0.00 | 0.07 | 0.07 | 92 | 1005.9 |
| 20260506225552 | 58 | 174 | 3.0 | 8.0 | 0.00 | 0.07 | 0.07 | 92 | 1005.9 |
| 20260506225046 | 58 | 234 | 3.0 | 8.0 | 0.00 | 0.07 | 0.07 | 92 | 1006.0 |
| 20260506224550 | 58 | 236 | 5.0 | 8.0 | 0.00 | 0.07 | 0.07 | 91 | 1005.9 |
| 20260506224045 | 58 | 260 | 4.0 | 8.0 | 0.00 | 0.07 | 0.07 | 92 | 1005.9 |
| 20260506223546 | 58 | 192 | 2.0 | 8.0 | 0.00 | 0.07 | 0.07 | 92 | 1006.0 |
| 20260506223051 | 58 | 237 | 2.0 | 7.0 | 0.00 | 0.07 | 0.07 | 92 | 1005.8 |
| 20260506222548 | 58 | 187 | 3.0 | 7.0 | 0.00 | 0.07 | 0.07 | 92 | 1005.7 |
| 20260506222048 | 58 | 205 | 2.0 | 7.0 | 0.01 | 0.07 | 0.07 | 92 | 1005.7 |
| 20260506221609 | 58 | 234 | 1.0 | 7.0 | 0.01 | 0.07 | 0.07 | 92 | 1005.8 |
| 20260506221047 | 58 | 268 | 2.0 | 7.0 | 0.01 | 0.07 | 0.07 | 92 | 1005.7 |
| 20260506220551 | 58 | 219 | 3.0 | 9.0 | 0.01 | 0.07 | 0.07 | 92 | 1005.8 |
| 20260506220105 | 58 | 201 | 3.0 | 9.0 | 0.01 | 0.07 | 0.07 | 92 | 1005.9 |
| 20260506215547 | 58 | 216 | 0.0 | 9.0 | 0.01 | 0.07 | 0.07 | 92 | 1006.1 |
| 20260506215048 | 58 | 243 | 4.0 | 9.0 | 0.01 | 0.07 | 0.07 | 92 | 1006.2 |
| 20260506214553 | 58 | 199 | 3.0 | 9.0 | 0.01 | 0.07 | 0.07 | 92 | 1006.2 |
| 20260506214048 | 58 | 243 | 3.0 | 9.0 | 0.01 | 0.07 | 0.07 | 92 | 1006.2 |
| 20260506213548 | 58 | 0 | 3.0 | 11.0 | 0.01 | 0.07 | 0.07 | 92 | 1006.1 |
| 20260506213105 | 58 | 211 | 2.0 | 11.0 | 0.01 | 0.07 | 0.07 | 92 | 1006.3 |
| 20260506212548 | 58 | 229 | 4.0 | 10.0 | 0.01 | 0.07 | 0.07 | 92 | 1006.2 |
| 20260506212048 | 58 | 232 | 4.0 | 9.0 | 0.00 | 0.06 | 0.06 | 92 | 1006.3 |
| 20260506211610 | 58 | 232 | 4.0 | 12.0 | 0.00 | 0.06 | 0.06 | 91 | 1006.4 |
| 20260506211049 | 59 | 233 | 6.0 | 12.0 | 0.00 | 0.06 | 0.06 | 90 | 1006.5 |
| 20260506210548 | 59 | 212 | 6.0 | 12.0 | 0.00 | 0.06 | 0.06 | 90 | 1006.6 |
| 20260506210056 | 59 | 268 | 3.0 | 10.0 | 0.00 | 0.06 | 0.06 | 90 | 1006.7 |
| 20260506205547 | 59 | 247 | 5.0 | 12.0 | 0.00 | 0.06 | 0.06 | 90 | 1006.7 |
| 20260506205049 | 59 | 221 | 4.0 | 12.0 | 0.00 | 0.06 | 0.06 | 90 | 1006.6 |
| 20260506204601 | 59 | 216 | 5.0 | 10.0 | 0.00 | 0.06 | 0.06 | 90 | 1006.7 |
| 20260506204047 | 59 | 205 | 3.0 | 9.0 | 0.01 | 0.06 | 0.06 | 91 | 1006.6 |
| 20260506203548 | 59 | 223 | 1.0 | 8.0 | 0.01 | 0.06 | 0.06 | 91 | 1006.7 |
| 20260506203048 | 59 | 215 | 2.0 | 8.0 | 0.01 | 0.06 | 0.06 | 90 | 1006.8 |
| 20260506202548 | 59 | 253 | 4.0 | 10.0 | 0.02 | 0.06 | 0.06 | 90 | 1006.7 |
| 20260506202049 | 59 | 227 | 3.0 | 10.0 | 0.03 | 0.06 | 0.06 | 90 | 1006.8 |
| 20260506201550 | 59 | 265 | 4.0 | 8.0 | 0.03 | 0.06 | 0.06 | 91 | 1006.9 |
| 20260506201048 | 59 | 193 | 3.0 | 12.0 | 0.04 | 0.06 | 0.06 | 91 | 1006.8 |
| 20260506200549 | 59 | 227 | 3.0 | 18.0 | 0.04 | 0.06 | 0.06 | 90 | 1006.9 |
| 20260506200054 | 59 | 250 | 4.0 | 18.0 | 0.04 | 0.06 | 0.06 | 90 | 1006.9 |
| 20260506195552 | 59 | 261 | 6.0 | 18.0 | 0.04 | 0.06 | 0.06 | 90 | 1007.1 |
| 20260506195049 | 59 | 217 | 4.0 | 9.0 | 0.05 | 0.06 | 0.06 | 90 | 1007.1 |
| 20260506194552 | 59 | 223 | 4.0 | 8.0 | 0.05 | 0.06 | 0.06 | 90 | 1007.1 |
| 20260506194048 | 59 | 236 | 1.0 | 7.0 | 0.04 | 0.05 | 0.05 | 91 | 1007.0 |
| 20260506193547 | 59 | 232 | 3.0 | 11.0 | 0.05 | 0.05 | 0.05 | 90 | 1007.1 |
| 20260506193047 | 59 | 196 | 5.0 | 11.0 | 0.05 | 0.05 | 0.05 | 89 | 1007.1 |
| 20260506192548 | 59 | 213 | 3.0 | 7.0 | 0.04 | 0.04 | 0.04 | 89 | 1007.1 |
| 20260506192048 | 59 | 202 | 2.0 | 6.0 | 0.03 | 0.03 | 0.03 | 88 | 1007.2 |
| 20260506191553 | 59 | 255 | 2.0 | 11.0 | 0.03 | 0.03 | 0.03 | 87 | 1007.2 |
| 20260506191048 | 59 | 211 | 2.0 | 11.0 | 0.02 | 0.02 | 0.02 | 86 | 1007.3 |
| 20260506190548 | 60 | 253 | 6.0 | 21.0 | 0.02 | 0.02 | 0.02 | 85 | 1007.2 |
| 20260506190051 | 60 | 227 | 8.0 | 21.0 | 0.02 | 0.02 | 0.02 | 85 | 1007.2 |
| 20260506185548 | 60 | 217 | 6.0 | 15.0 | 0.02 | 0.02 | 0.02 | 84 | 1007.4 |
| 20260506185048 | 60 | 192 | 4.0 | 15.0 | 0.01 | 0.01 | 0.01 | 83 | 1007.4 |
| 20260506184605 | 61 | 221 | 7.0 | 15.0 | 0.01 | 0.01 | 0.01 | 82 | 1007.6 |
| 20260506184048 | 61 | 235 | 3.0 | 13.0 | 0.00 | 0.00 | 0.00 | 82 | 1007.6 |
| 20260506183554 | 62 | 235 | 5.0 | 13.0 | 0.00 | 0.00 | 0.00 | 79 | 1007.7 |
| 20260506183051 | 62 | 238 | 5.0 | 12.0 | 0.00 | 0.00 | 0.00 | 77 | 1007.7 |
| 20260506182547 | 63 | 260 | 6.0 | 15.0 | 0.00 | 0.00 | 0.00 | 76 | 1007.6 |
| 20260506182051 | 63 | 236 | 6.0 | 16.0 | 0.00 | 0.00 | 0.00 | 75 | 1007.7 |
| 20260506181552 | 64 | 259 | 7.0 | 16.0 | 0.00 | 0.00 | 0.00 | 74 | 1007.9 |
| 20260506181048 | 64 | 223 | 10.0 | 16.0 | 0.00 | 0.00 | 0.00 | 72 | 1007.9 |
| 20260506180548 | 64 | 234 | 11.0 | 16.0 | 0.00 | 0.00 | 0.00 | 71 | 1007.8 |
| 20260506180058 | 65 | 205 | 9.0 | 14.0 | 0.00 | 0.00 | 0.00 | 70 | 1007.9 |
| 20260506175548 | 66 | 207 | 4.0 | 19.0 | 0.00 | 0.00 | 0.00 | 68 | 1007.8 |
| 20260506175050 | 65 | 217 | 4.0 | 19.0 | 0.00 | 0.00 | 0.00 | 69 | 1007.9 |
| 20260506174557 | 66 | 251 | 10.0 | 19.0 | 0.00 | 0.00 | 0.00 | 67 | 1008.0 |
| 20260506174047 | 66 | 196 | 9.0 | 19.0 | 0.00 | 0.00 | 0.00 | 67 | 1008.0 |
| 20260506173548 | 67 | 239 | 7.0 | 18.0 | 0.00 | 0.00 | 0.00 | 65 | 1007.9 |
| 20260506173051 | 68 | 259 | 8.0 | 18.0 | 0.00 | 0.00 | 0.00 | 65 | 1007.9 |
| 20260506172549 | 68 | 199 | 7.0 | 19.0 | 0.00 | 0.00 | 0.00 | 65 | 1008.0 |
| 20260506172048 | 68 | 250 | 9.0 | 19.0 | 0.00 | 0.00 | 0.00 | 64 | 1008.0 |
| 20260506171607 | 69 | 190 | 7.0 | 19.0 | 0.00 | 0.00 | 0.00 | 64 | 1008.0 |
| 20260506171048 | 68 | 265 | 8.0 | 19.0 | 0.00 | 0.00 | 0.00 | 64 | 1008.1 |
| 20260506170549 | 68 | 235 | 11.0 | 19.0 | 0.00 | 0.00 | 0.00 | 64 | 1008.0 |
| 20260506170100 | 67 | 211 | 8.0 | 16.0 | 0.00 | 0.00 | 0.00 | 65 | 1008.0 |
| 20260506165548 | 69 | 167 | 8.0 | 15.0 | 0.00 | 0.00 | 0.00 | 62 | 1008.1 |
| 20260506165048 | 70 | 170 | 6.0 | 21.0 | 0.00 | 0.00 | 0.00 | 62 | 1008.0 |
| 20260506164555 | 70 | 202 | 8.0 | 21.0 | 0.00 | 0.00 | 0.00 | 62 | 1008.0 |
| 20260506164048 | 69 | 200 | 6.0 | 15.0 | 0.00 | 0.00 | 0.00 | 60 | 1008.2 |
| 20260506163547 | 69 | 194 | 7.0 | 16.0 | 0.00 | 0.00 | 0.00 | 63 | 1008.2 |
| 20260506163107 | 68 | 213 | 7.0 | 16.0 | 0.00 | 0.00 | 0.00 | 63 | 1008.2 |
| 20260506162551 | 69 | 238 | 6.0 | 14.0 | 0.00 | 0.00 | 0.00 | 63 | 1008.5 |
| 20260506162048 | 69 | 243 | 6.0 | 14.0 | 0.00 | 0.00 | 0.00 | 62 | 1008.5 |
| 20260506161557 | 69 | 216 | 7.0 | 14.0 | 0.00 | 0.00 | 0.00 | 63 | 1008.6 |
| 20260506161050 | 69 | 202 | 5.0 | 15.0 | 0.00 | 0.00 | 0.00 | 62 | 1008.6 |
| 20260506160549 | 68 | 207 | 5.0 | 17.0 | 0.00 | 0.00 | 0.00 | 61 | 1008.7 |
| 20260506155548 | 69 | 223 | 6.0 | 18.0 | 0.00 | 0.00 | 0.00 | 63 | 1008.9 |
| 20260506155047 | 68 | 229 | 9.0 | 18.0 | 0.00 | 0.00 | 0.00 | 63 | 1008.9 |
| 20260506154558 | 69 | 193 | 8.0 | 17.0 | 0.00 | 0.00 | 0.00 | 62 | 1008.9 |
| 20260506154051 | 69 | 236 | 7.0 | 17.0 | 0.00 | 0.00 | 0.00 | 63 | 1008.9 |
| 20260506153547 | 69 | 196 | 7.0 | 17.0 | 0.00 | 0.00 | 0.00 | 62 | 1009.1 |
| 20260506153059 | 69 | 155 | 6.0 | 21.0 | 0.00 | 0.00 | 0.00 | 62 | 1009.0 |
| 20260506152548 | 69 | 249 | 8.0 | 21.0 | 0.00 | 0.00 | 0.00 | 63 | 1009.1 |
| 20260506152048 | 69 | 245 | 6.0 | 17.0 | 0.00 | 0.00 | 0.00 | 61 | 1009.2 |
| 20260506151556 | 69 | 199 | 9.0 | 17.0 | 0.00 | 0.00 | 0.00 | 63 | 1009.2 |
| 20260506151047 | 68 | 211 | 8.0 | 16.0 | 0.00 | 0.00 | 0.00 | 65 | 1009.3 |
| 20260506150547 | 68 | 261 | 8.0 | 16.0 | 0.00 | 0.00 | 0.00 | 63 | 1009.3 |
| 20260506150056 | 67 | 203 | 8.0 | 21.0 | 0.00 | 0.00 | 0.00 | 62 | 1009.3 |
| 20260506145548 | 68 | 188 | 5.0 | 21.0 | 0.00 | 0.00 | 0.00 | 65 | 1009.4 |
| 20260506145049 | 67 | 247 | 8.0 | 17.0 | 0.00 | 0.00 | 0.00 | 66 | 1009.3 |
| 20260506144601 | 67 | 234 | 4.0 | 15.0 | 0.00 | 0.00 | 0.00 | 67 | 1009.4 |
| 20260506144047 | 66 | 272 | 7.0 | 19.0 | 0.00 | 0.00 | 0.00 | 68 | 1009.5 |
| 20260506143548 | 66 | 200 | 9.0 | 19.0 | 0.00 | 0.00 | 0.00 | 67 | 1009.5 |
| 20260506143050 | 67 | 211 | 4.0 | 19.0 | 0.00 | 0.00 | 0.00 | 67 | 1009.5 |
| 20260506142548 | 67 | 175 | 5.0 | 14.0 | 0.00 | 0.00 | 0.00 | 67 | 1009.4 |
| 20260506142048 | 66 | 232 | 6.0 | 16.0 | 0.00 | 0.00 | 0.00 | 67 | 1009.4 |
| 20260506141547 | 66 | 243 | 6.0 | 16.0 | 0.00 | 0.00 | 0.00 | 67 | 1009.2 |
| 20260506141048 | 67 | 213 | 6.0 | 13.0 | 0.00 | 0.00 | 0.00 | 66 | 1009.2 |
| 20260506140548 | 67 | 215 | 6.0 | 19.0 | 0.00 | 0.00 | 0.00 | 66 | 1009.2 |
| 20260506140051 | 67 | 217 | 5.0 | 19.0 | 0.00 | 0.00 | 0.00 | 68 | 1009.3 |
| 20260506135547 | 66 | 223 | 7.0 | 19.0 | 0.00 | 0.00 | 0.00 | 68 | 1009.5 |
| 20260506135047 | 66 | 248 | 7.0 | 16.0 | 0.00 | 0.00 | 0.00 | 65 | 1009.3 |
| 20260506134552 | 66 | 243 | 5.0 | 16.0 | 0.00 | 0.00 | 0.00 | 69 | 1009.3 |
| 20260506134048 | 66 | 180 | 7.0 | 16.0 | 0.00 | 0.00 | 0.00 | 69 | 1009.2 |
| 20260506133548 | 66 | 171 | 3.0 | 14.0 | 0.00 | 0.00 | 0.00 | 70 | 1009.3 |
| 20260506133054 | 65 | 242 | 5.0 | 15.0 | 0.00 | 0.00 | 0.00 | 70 | 1009.4 |
| 20260506132549 | 65 | 248 | 7.0 | 15.0 | 0.00 | 0.00 | 0.00 | 70 | 1009.5 |
| 20260506132050 | 65 | 186 | 6.0 | 12.0 | 0.00 | 0.00 | 0.00 | 72 | 1009.7 |
| 20260506131607 | 64 | 185 | 6.0 | 12.0 | 0.00 | 0.00 | 0.00 | 71 | 1009.9 |
| 20260506131047 | 63 | 248 | 4.0 | 17.0 | 0.00 | 0.00 | 0.00 | 75 | 1009.9 |
| 20260506130547 | 63 | 195 | 6.0 | 17.0 | 0.00 | 0.00 | 0.00 | 74 | 1009.9 |
| 20260506130056 | 63 | 221 | 7.0 | 19.0 | 0.00 | 0.00 | 0.00 | 74 | 1009.9 |
| 20260506125549 | 63 | 179 | 8.0 | 19.0 | 0.00 | 0.00 | 0.00 | 76 | 1009.8 |
| 20260506125047 | 63 | 239 | 8.0 | 15.0 | 0.00 | 0.00 | 0.00 | 76 | 1009.9 |
| 20260506124556 | 62 | 271 | 6.0 | 13.0 | 0.00 | 0.00 | 0.00 | 77 | 1009.8 |
| 20260506124048 | 62 | 194 | 6.0 | 16.0 | 0.00 | 0.00 | 0.00 | 77 | 1009.9 |
| 20260506123548 | 62 | 251 | 8.0 | 16.0 | 0.00 | 0.00 | 0.00 | 77 | 1009.9 |
| 20260506123055 | 62 | 242 | 4.0 | 13.0 | 0.00 | 0.00 | 0.00 | 77 | 1009.9 |
| 20260506122547 | 62 | 204 | 6.0 | 15.0 | 0.00 | 0.00 | 0.00 | 78 | 1009.9 |
| 20260506122048 | 62 | 241 | 6.0 | 15.0 | 0.00 | 0.00 | 0.00 | 78 | 1009.8 |
| 20260506121600 | 61 | 226 | 4.0 | 15.0 | 0.00 | 0.00 | 0.00 | 78 | 1009.9 |
| 20260506121050 | 61 | 211 | 5.0 | 15.0 | 0.00 | 0.00 | 0.00 | 78 | 1009.9 |
| 20260506120548 | 61 | 206 | 7.0 | 15.0 | 0.00 | 0.00 | 0.00 | 79 | 1009.8 |
| 20260506120055 | 61 | 232 | 4.0 | 21.0 | 0.00 | 0.00 | 0.00 | 79 | 1009.9 |
| 20260506115548 | 60 | 265 | 6.0 | 21.0 | 0.00 | 0.00 | 0.00 | 80 | 1009.9 |
| 20260506115048 | 60 | 257 | 5.0 | 12.0 | 0.00 | 0.00 | 0.00 | 80 | 1010.1 |
| 20260506114556 | 60 | 284 | 5.0 | 14.0 | 0.00 | 0.00 | 0.00 | 81 | 1010.2 |
| 20260506114048 | 59 | 229 | 4.0 | 14.0 | 0.00 | 0.00 | 0.00 | 82 | 1010.2 |
| 20260506113548 | 59 | 233 | 2.0 | 11.0 | 0.00 | 0.00 | 0.00 | 82 | 1010.2 |
| 20260506113054 | 59 | 213 | 5.0 | 12.0 | 0.00 | 0.00 | 0.00 | 82 | 1010.2 |
| 20260506112552 | 59 | 259 | 4.0 | 13.0 | 0.00 | 0.00 | 0.00 | 82 | 1010.2 |
| 20260506112048 | 59 | 213 | 3.0 | 13.0 | 0.00 | 0.00 | 0.00 | 82 | 1010.3 |
| 20260506111554 | 59 | 240 | 6.0 | 12.0 | 0.00 | 0.00 | 0.00 | 82 | 1010.3 |
| 20260506111048 | 59 | 225 | 6.0 | 12.0 | 0.00 | 0.00 | 0.00 | 82 | 1010.2 |
| 20260506110548 | 59 | 202 | 4.0 | 9.0 | 0.00 | 0.00 | 0.00 | 82 | 1010.2 |
| 20260506110055 | 59 | 221 | 4.0 | 9.0 | 0.00 | 0.00 | 0.00 | 83 | 1010.2 |
| 20260506105548 | 59 | 222 | 2.0 | 12.0 | 0.00 | 0.00 | 0.00 | 83 | 1010.1 |
| 20260506105048 | 58 | 246 | 5.0 | 12.0 | 0.00 | 0.00 | 0.00 | 83 | 1010.1 |
| 20260506104601 | 58 | 203 | 5.0 | 12.0 | 0.00 | 0.00 | 0.00 | 83 | 1010.1 |
| 20260506104048 | 58 | 266 | 3.0 | 8.0 | 0.00 | 0.00 | 0.00 | 83 | 1010.2 |
| 20260506103548 | 58 | 251 | 3.0 | 10.0 | 0.00 | 0.00 | 0.00 | 83 | 1010.2 |
| 20260506103056 | 58 | 209 | 4.0 | 10.0 | 0.00 | 0.00 | 0.00 | 80 | 1010.1 |
| 20260506102548 | 58 | 265 | 3.0 | 9.0 | 0.00 | 0.00 | 0.00 | 83 | 1010.1 |
| 20260506102048 | 58 | 244 | 3.0 | 9.0 | 0.00 | 0.00 | 0.00 | 84 | 1010.1 |
| 20260506101557 | 58 | 216 | 4.0 | 9.0 | 0.00 | 0.00 | 0.00 | 83 | 1010.1 |
| 20260506101048 | 58 | 202 | 4.0 | 9.0 | 0.00 | 0.00 | 0.00 | 83 | 1010.0 |
| 20260506100548 | 58 | 229 | 3.0 | 8.0 | 0.00 | 0.00 | 0.00 | 83 | 1010.2 |
| 20260506100109 | 58 | 250 | 4.0 | 10.0 | 0.00 | 0.00 | 0.00 | 83 | 1010.1 |
| 20260506095548 | 58 | 258 | 3.0 | 11.0 | 0.00 | 0.00 | 0.00 | 83 | 1010.1 |
| 20260506095048 | 58 | 217 | 4.0 | 11.0 | 0.00 | 0.00 | 0.00 | 80 | 1010.0 |
| 20260506094555 | 58 | 167 | 3.0 | 9.0 | 0.00 | 0.00 | 0.00 | 83 | 1010.0 |
| 20260506094048 | 58 | 263 | 3.0 | 10.0 | 0.00 | 0.00 | 0.00 | 83 | 1010.0 |
| 20260506093548 | 58 | 251 | 4.0 | 10.0 | 0.00 | 0.00 | 0.00 | 82 | 1009.9 |
| 20260506093056 | 58 | 196 | 2.0 | 11.0 | 0.00 | 0.00 | 0.00 | 82 | 1009.8 |
| 20260506092549 | 58 | 223 | 2.0 | 11.0 | 0.00 | 0.00 | 0.00 | 82 | 1009.8 |
| 20260506092048 | 58 | 188 | 5.0 | 11.0 | 0.00 | 0.00 | 0.00 | 82 | 1009.9 |
| 20260506091556 | 58 | 196 | 3.0 | 11.0 | 0.00 | 0.00 | 0.00 | 82 | 1009.9 |
| 20260506091048 | 58 | 227 | 4.0 | 11.0 | 0.00 | 0.00 | 0.00 | 82 | 1010.0 |
| 20260506090548 | 58 | 257 | 4.0 | 11.0 | 0.00 | 0.00 | 0.00 | 82 | 1009.9 |
| 20260506090121 | 58 | 223 | 3.0 | 9.0 | 0.00 | 0.00 | 0.00 | 82 | 1010.0 |
| 20260506085547 | 58 | 242 | 5.0 | 8.0 | 0.00 | 0.00 | 0.00 | 82 | 1010.0 |
| 20260506085048 | 58 | 215 | 2.0 | 9.0 | 0.00 | 0.00 | 0.00 | 82 | 1010.1 |
| 20260506084553 | 58 | 211 | 4.0 | 9.0 | 0.00 | 0.00 | 0.00 | 81 | 1010.0 |
| 20260506084047 | 59 | 254 | 5.0 | 9.0 | 0.00 | 0.00 | 0.00 | 81 | 1010.2 |